Talkeetna, AK

7:26 PM AKDT on October 20, 2017 (GMT -0800)
Talkeetna

Weather History for PATK - March, 2013

Change the Weather History Date:

Saturday, March 30, 2013

  Actual Average Record
Temperature  
Mean Temperature 32 °F -  
Max Temperature 41 °F 37 °F 50 °F (1954)
Min Temperature 25 °F 13 °F -23 °F (1972)
Degree Days  
Heating Degree Days 33    
Moisture  
Dew Point 29 °F    
Average Humidity 84    
Maximum Humidity 100    
Minimum Humidity 51    
Precipitation  
Precipitation 0.03 in - - ()
Sea Level Pressure  
Sea Level Pressure 30.15 in    
Wind  
Wind Speed 2 mph (WNW)    
Max Wind Speed 7 mph    
Max Gust Speed -    
Visibility 9 miles    
Events Rain , Snow    
Averages and records for this station are not official NWS values.
T = Trace of Precipitation, MM = Missing Value Source: NWS Daily Summary

Daily Weather History Graph

Daily Weather History Graph

Search for Another Location

Airport or City:

Trip Planner

Search our weather history database for the weather conditions in past years. The results will help you decide how hot, cold, wet, or windy it might be!

Date:

Astronomy

Mar. 30, 2013 Rise Set
Actual Time 7:26 AM AKDT 8:44 PM AKDT
Civil Twilight 6:40 AM AKDT 9:30 PM AKDT
Nautical Twilight 5:42 AM AKDT 10:29 PM AKDT
Astronomical Twilight 4:32 AM AKDT 11:40 PM AKDT
Moon 1:04 AM AKDT (3/30) 8:15 AM AKDT (3/30)
Length of Visible Light 14h 49m
Length of Day
13h 17m
Waning Gibbous, 85% of the Moon is Illuminated
Mar 30
Waning Gibbous
Apr 2
Last Quarter
Apr 10
New
Apr 18
First Quarter
Apr 25
Full

Hourly Weather History & Observations

Time (AKDT) Temp. Windchill Dew Point Humidity Pressure Visibility Wind Dir Wind Speed Gust Speed Precip Events Conditions
12:53 AM 32.0 °F 28.7 °F 27.0 °F 82% 30.00 in 10.0 mi North 3.5 mph - N/A   Overcast
1:53 AM 30.9 °F 26.2 °F 26.1 °F 82% 30.01 in 10.0 mi North 4.6 mph - N/A   Overcast
2:53 AM 28.9 °F - 25.0 °F 85% 30.02 in 10.0 mi Calm Calm - N/A   Overcast
3:53 AM 30.0 °F 26.5 °F 25.0 °F 82% 30.03 in 10.0 mi NNW 3.5 mph - N/A   Overcast
4:53 AM 30.0 °F - 25.0 °F 82% 30.05 in 10.0 mi Calm Calm - N/A   Overcast
5:53 AM 28.9 °F - 26.1 °F 89% 30.06 in 10.0 mi Calm Calm - N/A   Overcast
6:53 AM 28.0 °F - 25.0 °F 88% 30.08 in 10.0 mi Calm Calm - N/A   Overcast
7:53 AM 25.0 °F - 24.1 °F 96% 30.10 in 10.0 mi Calm Calm - N/A   Overcast
8:53 AM 27.0 °F - 24.1 °F 89% 30.11 in 10.0 mi Calm Calm - N/A   Overcast
9:53 AM 32.0 °F 28.7 °F 25.0 °F 75% 30.13 in 10.0 mi North 3.5 mph - N/A   Overcast
10:53 AM 34.0 °F 31.0 °F 26.1 °F 73% 30.14 in 10.0 mi WNW 3.5 mph - N/A   Overcast
11:53 AM 34.0 °F 28.8 °F 27.0 °F 75% 30.15 in 10.0 mi West 5.8 mph - N/A   Overcast
12:53 PM 36.0 °F 31.1 °F 28.0 °F 73% 30.16 in 10.0 mi WNW 5.8 mph - N/A   Overcast
1:53 PM 37.0 °F 31.6 °F 28.0 °F 70% 30.16 in 10.0 mi WNW 6.9 mph - N/A   Overcast
2:53 PM 39.0 °F 34.8 °F 28.0 °F 65% 30.17 in 10.0 mi West 5.8 mph - N/A   Overcast
3:53 PM 39.9 °F 35.8 °F 28.0 °F 63% 30.17 in 10.0 mi West 5.8 mph - N/A   Overcast
4:53 PM 39.9 °F - 27.0 °F 60% 30.18 in 10.0 mi Calm Calm - N/A   Overcast
5:53 PM 39.9 °F - 28.0 °F 63% 30.19 in 10.0 mi Calm Calm - N/A   Overcast
6:40 PM 37.4 °F 32.8 °F 32.0 °F 81% 30.17 in 10.0 mi SSW 5.8 mph - N/A   Overcast
6:53 PM 37.0 °F 33.3 °F 33.1 °F 86% 30.20 in 10.0 mi SW 4.6 mph - N/A   Overcast
7:23 PM 35.6 °F - 33.8 °F 93% 30.18 in 10.0 mi Calm Calm - 0.00 in Rain Light Rain
7:53 PM 36.0 °F - 34.0 °F 93% 30.20 in 10.0 mi Calm Calm - 0.00 in Rain Light Rain
8:09 PM 35.6 °F - 33.8 °F 93% 30.19 in 9.0 mi Calm Calm - 0.00 in   Overcast
8:18 PM 35.6 °F - 33.8 °F 93% 30.19 in 7.0 mi Calm Calm - 0.00 in   Overcast
8:35 PM 35.6 °F - 33.8 °F 93% 30.19 in 9.0 mi Calm Calm - 0.00 in   Overcast
8:38 PM 35.6 °F - 33.8 °F 93% 30.19 in 9.0 mi Calm Calm - 0.00 in   Overcast
8:53 PM 34.0 °F - 33.1 °F 96% 30.22 in 7.0 mi Calm Calm - 0.00 in   Overcast
9:53 PM 34.0 °F - 33.1 °F 96% 30.23 in 10.0 mi Calm Calm - 0.00 in Rain Light Rain
10:21 PM 33.8 °F - 33.8 °F 100% 30.22 in 9.0 mi Calm Calm - 0.01 in Rain Light Rain
10:45 PM 33.8 °F - 33.8 °F 100% 30.22 in 7.0 mi Calm Calm - 0.01 in Rain Light Rain
10:53 PM 33.1 °F - 33.1 °F 100% 30.24 in 6.0 mi Calm Calm - 0.01 in Rain Light Rain
11:14 PM 33.8 °F - 33.8 °F 100% 30.22 in 7.0 mi Calm Calm - 0.01 in Snow Light Snow
11:33 PM 33.8 °F - 32.0 °F 93% 30.23 in 2.5 mi Calm Calm - 0.01 in Snow Light Snow
11:44 PM 33.8 °F - 32.0 °F 93% 30.23 in 3.0 mi Calm Calm - 0.02 in Snow Light Snow
11:53 PM 33.1 °F - 32.0 °F 96% 30.25 in 6.0 mi Calm Calm - 0.02 in Snow Light Snow